Stations météo

réclame
Mon MeteoGroup
Aguilas, Espagne (8432): Température de l'air & dewpoint: 01.08.2020 23:00:00 - 07.08.2020 23:00:00 (CEST)Aguilas, Espagne (8432): Vitesse du vent & gusts: 01.08.2020 23:00:00 - 07.08.2020 23:00:00 (CEST)Aguilas, Espagne (8432): Direction du vent: 01.08.2020 23:00:00 - 07.08.2020 23:00:00 (CEST)Aguilas, Espagne (8432): reduced air pressure: 01.08.2020 23:00:00 - 07.08.2020 23:00:00 (CEST)Aguilas, Espagne (8432): visibility: 01.08.2020 23:00:00 - 07.08.2020 23:00:00 (CEST)Aguilas, Espagne (8432): Ensoleillement: 01.08.2020 23:00:00 - 07.08.2020 23:00:00 (CEST)Aguilas, Espagne (8432): Quantités de précipitations: 01.08.2020 23:00:00 - 07.08.2020 23:00:00 (CEST)
Date & Time tt [°C] td [°C] ff [km/h] ff [knt] fx [km/h] fx [knt] dd ppp [hPa] vv [km] sd [min] rr [mm]
07.08.2020 23:00:00 - - - - - - - - - - -
07.08.2020 22:00:00 27,1 16,4 6 3 12 6 E 1018,1 20 0 0,0
07.08.2020 21:00:00 28,1 17,9 9 5 16 9 E 1017,0 20 24 0,0
07.08.2020 20:00:00 29,8 13,6 11 6 20 11 ESE 1017,0 20 60 -
07.08.2020 19:00:00 30,5 13,8 10 6 23 13 SSE 1017,2 20 60 0,0
07.08.2020 18:00:00 30,7 17,1 13 7 23 12 SE 1017,5 20 60 0,0
07.08.2020 17:00:00 31,2 15,6 15 8 27 15 SE 1017,8 20 60 0,0
07.08.2020 16:00:00 31,9 12,6 16 9 27 15 SE 1018,1 20 60 0,0
07.08.2020 15:00:00 32,2 13,0 14 8 29 15 SE 1018,4 20 60 0,0
07.08.2020 14:00:00 32,6 11,7 14 7 26 14 SE 1018,6 20 60 -
07.08.2020 13:00:00 32,5 9,3 14 8 29 16 SE 1018,4 20 60 0,0
07.08.2020 12:00:00 33,0 8,4 14 8 26 14 SE 1018,2 20 60 0,0
07.08.2020 11:00:00 32,3 7,8 16 9 25 13 ESE 1017,9 20 60 0,0
07.08.2020 10:00:00 30,1 9,0 5 3 10 6 SW 1018,1 20 49 0,0
07.08.2020 09:00:00 27,4 11,0 2 1 9 5 SW 1018,0 20 60 0,0
07.08.2020 08:00:00 23,3 10,0 5 3 9 5 N 1017,6 20 9 -
07.08.2020 07:00:00 22,9 9,3 3 2 8 5 ENE 1017,1 20 0 0,0
07.08.2020 06:00:00 22,8 10,9 4 2 8 5 NE 1017,0 20 0 0,0
07.08.2020 05:00:00 23,6 11,0 3 2 9 5 N 1016,9 20 0 0,0
07.08.2020 04:00:00 23,5 11,6 2 1 8 5 N 1017,1 20 0 0,0
07.08.2020 03:00:00 23,9 11,6 4 2 7 4 ENE 1017,2 20 0 0,0
07.08.2020 02:00:00 24,6 12,8 3 2 6 3 N 1017,6 20 0 -
07.08.2020 01:00:00 25,3 14,7 1 1 6 4 NNE 1017,3 20 0 0,0
07.08.2020 00:00:00 26,3 18,2 4 2 9 5 N 1017,1 20 0 0,0
06.08.2020 23:00:00 26,4 19,6 5 3 16 9 E 1016,9 20 0 0,0
06.08.2020 22:00:00 26,8 19,6 11 6 18 10 E 1016,4 20 0 0,0
06.08.2020 21:00:00 27,5 19,3 11 6 27 15 E 1016,0 20 23 0,0
06.08.2020 20:00:00 28,7 18,5 16 9 30 16 E 1014,8 20 60 -
06.08.2020 19:00:00 29,8 18,9 17 9 35 19 ESE 1015,0 20 60 0,0
06.08.2020 18:00:00 30,6 18,0 21 12 38 20 ESE 1014,7 20 60 0,0
06.08.2020 17:00:00 31,4 19,1 21 12 38 20 ESE 1014,9 20 60 0,0
06.08.2020 16:00:00 31,6 18,9 22 12 39 21 ESE 1015,3 20 60 0,0
06.08.2020 15:00:00 30,4 18,5 27 14 42 23 SE 1015,7 20 60 0,0
06.08.2020 14:00:00 30,5 18,2 26 14 39 21 SE 1015,9 20 60 -
06.08.2020 13:00:00 31,0 17,7 22 12 33 18 SE 1016,1 20 60 0,0
06.08.2020 12:00:00 32,0 15,1 18 10 31 17 ESE 1016,4 20 60 0,0
06.08.2020 11:00:00 31,4 13,2 13 7 26 14 E 1016,5 20 60 0,0
06.08.2020 10:00:00 29,6 15,0 12 7 25 13 E 1016,1 20 60 0,0
06.08.2020 09:00:00 28,3 13,8 11 6 19 10 E 1016,1 20 60 0,0
06.08.2020 08:00:00 23,6 14,9 1 1 7 4 N 1015,1 20 29 -
06.08.2020 07:00:00 23,9 15,7 3 1 10 5 N 1014,7 20 0 0,0
06.08.2020 06:00:00 24,1 15,9 5 3 10 5 N 1014,6 20 0 0,0
06.08.2020 05:00:00 24,3 15,0 3 2 7 4 NE 1014,6 20 0 0,0
06.08.2020 04:00:00 24,3 15,3 3 1 5 3 N 1014,4 20 0 0,0
06.08.2020 03:00:00 25,0 17,5 4 2 9 5 NE 1014,4 20 0 0,0
06.08.2020 02:00:00 25,7 18,8 4 2 7 4 E 1014,0 20 0 -
06.08.2020 01:00:00 26,3 19,9 4 2 9 5 N 1013,9 20 0 0,0
06.08.2020 00:00:00 26,3 20,2 5 3 13 7 E 1013,9 20 0 0,0
05.08.2020 23:00:00 26,6 20,0 8 4 19 10 E 1013,9 20 0 0,0
05.08.2020 22:00:00 26,8 19,6 9 5 19 10 E 1013,2 20 0 0,0
05.08.2020 21:00:00 27,4 19,5 14 7 23 13 E 1012,6 20 32 0,0
05.08.2020 20:00:00 28,7 19,3 14 7 24 13 E 1011,7 20 60 -
05.08.2020 19:00:00 29,2 18,9 14 7 29 16 SE 1011,8 20 60 0,0
05.08.2020 18:00:00 29,9 19,0 17 9 28 15 SE 1011,9 20 60 0,0
05.08.2020 17:00:00 29,8 19,5 18 10 29 16 SE 1012,4 20 60 0,0
05.08.2020 16:00:00 30,6 19,3 16 9 29 15 SE 1012,7 20 60 0,0
05.08.2020 15:00:00 30,9 17,6 17 9 31 17 SE 1013,1 20 60 0,0
05.08.2020 14:00:00 30,8 19,8 15 8 26 14 SE 1013,5 20 60 -
05.08.2020 13:00:00 30,3 18,1 18 10 28 15 SE 1013,6 20 60 0,0
05.08.2020 12:00:00 30,2 18,3 18 10 29 15 SE 1014,0 20 60 0,0
05.08.2020 11:00:00 30,4 17,5 14 8 26 14 ESE 1013,9 20 60 0,0
05.08.2020 10:00:00 29,7 17,9 6 3 19 10 ESE 1014,0 20 60 0,0
05.08.2020 09:00:00 27,5 17,4 3 2 9 5 NNE 1014,3 20 60 0,0
05.08.2020 08:00:00 24,2 17,0 2 1 8 4 N 1014,0 20 28 -
05.08.2020 07:00:00 23,7 17,0 3 1 6 3 N 1013,6 20 0 0,0
05.08.2020 06:00:00 23,9 17,1 2 1 8 4 NNW 1013,4 20 0 0,0
05.08.2020 05:00:00 24,0 17,7 1 1 8 4 NE 1013,3 20 0 0,0
05.08.2020 04:00:00 24,4 19,1 1 1 7 4 S 1013,1 20 0 0,0
05.08.2020 03:00:00 24,9 19,5 4 2 8 5 NNW 1013,4 20 0 0,0
05.08.2020 02:00:00 25,4 20,0 5 3 9 5 E 1013,7 20 0 -
05.08.2020 01:00:00 26,0 20,1 5 3 8 5 NE 1013,8 20 0 0,0
05.08.2020 00:00:00 26,1 20,2 5 3 10 5 ENE 1013,7 20 0 0,0
04.08.2020 23:00:00 26,4 20,3 5 3 12 7 E 1013,7 20 0 0,0
04.08.2020 22:00:00 26,6 20,2 7 4 19 10 ESE 1013,4 20 0 0,0
04.08.2020 21:00:00 27,0 20,3 10 6 21 11 ESE 1012,9 20 0 0,0
04.08.2020 20:00:00 27,8 20,6 12 6 22 12 ESE 1012,9 20 27 -
04.08.2020 19:00:00 28,9 20,3 10 6 22 12 SE 1012,2 20 58 0,0
04.08.2020 18:00:00 29,4 20,5 13 7 23 12 SE 1012,5 20 60 0,0
04.08.2020 17:00:00 30,0 20,5 12 7 26 14 SSE 1012,5 20 60 0,0
04.08.2020 16:00:00 29,9 20,7 15 8 26 14 SE 1012,9 20 60 0,0
04.08.2020 15:00:00 30,5 20,7 12 6 29 16 SSE 1013,4 16 60 0,0
04.08.2020 14:00:00 30,8 20,4 12 7 27 15 SE 1014,1 20 58 -
04.08.2020 13:00:00 30,3 20,9 16 8 29 15 SE 1014,4 20 58 0,0
04.08.2020 12:00:00 30,0 20,9 16 8 26 14 SE 1014,5 16 58 0,0
04.08.2020 11:00:00 30,2 20,2 14 7 25 14 E 1014,4 20 44 0,0
04.08.2020 10:00:00 28,2 20,3 8 5 18 10 ESE 1014,5 16 14 0,0
04.08.2020 09:00:00 27,7 20,5 7 4 13 7 E 1014,1 20 24 0,0
04.08.2020 08:00:00 25,8 20,1 3 2 9 5 NNE 1013,9 16 0 -
04.08.2020 07:00:00 25,6 20,4 4 2 9 5 ENE 1013,6 20 0 0,0
04.08.2020 06:00:00 25,9 20,7 3 2 10 5 E 1013,3 17 0 0,0
04.08.2020 05:00:00 26,5 21,5 6 3 11 6 E 1013,1 18 0 0,0
04.08.2020 04:00:00 26,3 21,7 5 3 11 6 ENE 1013,2 18 0 0,0
04.08.2020 03:00:00 26,3 21,7 6 4 11 6 E 1013,4 19 0 0,0
04.08.2020 02:00:00 26,5 21,7 6 3 10 5 E 1013,6 20 0 -
04.08.2020 01:00:00 26,8 21,6 7 4 11 6 E 1013,6 19 0 0,0
04.08.2020 00:00:00 26,9 21,4 7 4 12 7 E 1013,3 20 0 0,0
03.08.2020 23:00:00 27,3 21,8 8 4 15 8 E 1012,9 20 0 0,0
03.08.2020 22:00:00 27,4 21,9 9 5 18 10 ESE 1012,2 20 0 0,0
03.08.2020 21:00:00 28,1 22,3 11 6 18 10 ESE 1011,7 20 0 0,0
03.08.2020 20:00:00 29,0 21,5 10 5 18 10 SE 1011,6 18 13 -
03.08.2020 19:00:00 29,1 21,6 9 5 19 10 SSE 1011,2 20 38 0,0
03.08.2020 18:00:00 30,6 20,5 10 5 18 10 ESE 1010,9 20 59 0,0
03.08.2020 17:00:00 30,4 21,2 9 5 22 12 S 1010,9 19 58 0,0
03.08.2020 16:00:00 31,1 21,3 10 6 24 13 S 1011,2 16 60 0,0
03.08.2020 15:00:00 31,4 21,3 12 7 24 13 S 1011,4 20 60 0,0
03.08.2020 14:00:00 31,4 21,3 10 5 23 12 S 1011,5 15 60 -
03.08.2020 13:00:00 31,1 20,4 14 8 29 15 SSE 1012,0 18 60 0,0
03.08.2020 12:00:00 31,3 20,3 16 9 27 15 SE 1012,0 16 60 0,0
03.08.2020 11:00:00 29,8 20,1 16 8 27 15 ESE 1011,8 20 40 0,0
03.08.2020 10:00:00 28,8 20,0 8 5 16 9 SE 1011,1 20 42 0,0
03.08.2020 09:00:00 28,2 20,5 6 3 10 5 SE 1012,1 19 34 0,0
03.08.2020 08:00:00 26,4 20,3 5 3 11 6 N 1011,8 15 0 -
03.08.2020 07:00:00 26,0 21,0 4 2 9 5 NE 1011,2 12 0 0,0
03.08.2020 06:00:00 26,4 21,8 4 2 7 4 E 1011,2 11 0 0,0
03.08.2020 05:00:00 26,4 22,0 6 3 10 5 ESE 1011,3 12 0 0,0
03.08.2020 04:00:00 26,4 22,3 4 2 9 5 E 1010,8 2,1 0 0,0
03.08.2020 03:00:00 26,6 22,6 3 2 9 5 NNE 1011,3 10 0 0,0
03.08.2020 02:00:00 26,5 22,6 5 3 9 5 E 1012,1 10 0 -
03.08.2020 01:00:00 26,6 22,4 5 3 11 6 E 1012,3 12 0 0,0
03.08.2020 00:00:00 27,0 22,6 5 3 14 7 ESE 1012,7 13 0 0,0
02.08.2020 23:00:00 27,0 22,6 8 5 14 8 E 1012,4 13 0 0,0
02.08.2020 22:00:00 27,3 22,9 6 4 13 7 ESE 1012,0 12 0 0,0
02.08.2020 21:00:00 28,0 22,9 6 4 14 7 SE 1011,4 13 9 0,0
02.08.2020 20:00:00 29,2 22,7 8 5 21 12 SE 1011,5 16 60 -
02.08.2020 19:00:00 30,6 22,7 13 7 21 11 S 1011,4 14 60 0,0
02.08.2020 18:00:00 33,4 20,2 10 5 23 12 SSE 1011,9 17 60 0,0
02.08.2020 17:00:00 33,1 20,6 13 7 26 14 ESE 1012,6 20 60 0,0
02.08.2020 16:00:00 31,6 22,0 12 7 27 14 ESE 1013,4 20 50 0,0
02.08.2020 15:00:00 30,3 22,7 14 7 27 14 SSE 1014,3 14 16 0,0
02.08.2020 14:00:00 29,8 23,0 18 10 37 20 SE 1014,6 14 22 -
02.08.2020 13:00:00 30,6 23,3 19 11 36 19 ESE 1015,0 12 56 0,0
02.08.2020 12:00:00 30,7 23,1 20 11 36 19 SE 1014,7 11 60 0,0
02.08.2020 11:00:00 32,1 20,1 5 3 16 8 ESE 1013,5 20 60 0,0
02.08.2020 10:00:00 30,6 22,7 9 5 17 9 SSE 1013,4 16 60 0,0
02.08.2020 09:00:00 29,9 16,3 3 2 10 6 SSE 1012,7 17 60 0,0
02.08.2020 08:00:00 26,2 17,3 2 1 14 8 SE 1012,1 19 2 -
02.08.2020 07:00:00 24,8 18,5 3 2 13 7 SSW 1012,2 17 0 0,0
02.08.2020 06:00:00 25,1 19,3 5 3 12 6 SSE 1011,8 15 0 0,0
02.08.2020 05:00:00 25,3 20,7 3 1 10 5 E 1011,9 13 0 0,0
02.08.2020 04:00:00 25,9 22,2 4 2 10 5 NW 1012,0 11 0 0,0
02.08.2020 03:00:00 25,8 22,5 3 2 7 4 SE 1013,1 7 0 0,0
02.08.2020 02:00:00 26,5 23,4 2 1 5 3 N 1013,3 7 0 -
02.08.2020 01:00:00 26,7 23,4 3 1 11 6 WNW 1013,6 8 0 0,0
02.08.2020 00:00:00 27,2 23,7 4 2 17 9 WSW 1013,9 10 0 0,0
01.08.2020 23:00:00 27,8 22,5 6 4 13 7 SSW 1013,9 16 0 0,0

tt = Température de l'air
td = dewpoint
ff = Vitesse du vent
fx = gusts
dd = Direction du vent
ppp = reduced air pressure
vv = visibility
sd = Ensoleillement
rr = Quantités de précipitations

stations d'obs. à proximité